User: anonymous   Login
Location: Unspecified
(0.0000°N, 0.0000°E)
Time: 22:24:27
(UTC+00:00)
Language:

OBJECT AA - Orbit

View from above orbital plane
View from above orbital plane
View from above satellite
View from above satellite

Ground track
Ground track

The orbit data is extracted from the following two-line orbital elements,

1 42849U 17042AA  18168.52306686  .00000073  00000-0  12413-4 0  9996
2 42849  97.5978  71.5840 0007767 185.2699 174.8439 14.92203099 50398
Epoch (UTC): 17 June 2018 12:33:12
Eccentricity: 0.0007767
inclination: 97.5978°
perigee height: 585 km
apogee height: 596 km
right ascension of ascending node: 71.5840°
argument of perigee: 185.2699°
revolutions per day: 14.92203099
mean anomaly at epoch: 174.8439°
orbit number at epoch: 5039

The dashed part of the orbit path shows where the satellite is in the earth's shadow,  

DLR